www.pogodaiklimat.ru

Погода и климат >> Архив погоды >> Латвия >> Рига


АРХИВ ПОГОДЫ в Риге

Время (UTC), дата Ветер
(напр.,м/с)
 
Видим.   Явления Облачность Т
(С)
Тd
(С)
f
(%)
Тe
(С)
Тes
(С)
Комфортность P
(гПа)
Po
(гПа)
Тmin
(С)
Tmax
(С)
R
(мм)
R24
(мм)
S
(см)
12 9.07 -9
{9}
н/о н/о +17.8 +10.8 64 1004.5 1003.7
15 9.07 С 6-10
{11}
20 км н/о +17.1 +11.5 70 +16 +16 прохладно 1005.0 1004.1
18 9.07 С 5-8
{10}
20 км н/о +16.0 +11.5 75 +15 +15 прохладно 1005.0 1004.1
21 9.07 СВ 4-7
{7}
20 км н/о +15.1 +11.4 79 +14 +14 прохладно 1005.8 1004.9
00 10.07 -7
{7}
6000 м н/о +13.7 +12.7 94 1005.6 1004.7
03 10.07 -5
{6}
19 км н/о +13.3 +12.6 96 1005.4 1004.5
06 10.07 С 4-6
{7}
12 км н/о +13.0 +12.3 96 +11 +11 холодно 1005.8 1004.9 1
09 10.07 С 5-9
{9}
20 км н/о +15.7 +11.6 77 +15 +15 прохладно 1006.3 1005.4
12 10.07 С 6-9
{10}
20 км н/о +15.3 +12.7 84 +14 +14 очень
холодно
1006.8 1005.9
15 10.07 -10
{10}
20 км н/о +16.1 +12.2 78 1007.3 1006.4
18 10.07 С 4-5
{7}
н/о н/о +15.7 +13.1 85 +15 +15 прохладно 1008.0 1007.1
21 10.07 С 2-4
{5}
н/о н/о +15.1 +12.9 87 +15 +15 по сезону 1008.3 1007.4
00 11.07 СЗ 2-3
{4}
20 км н/о +14.4 +13.0 91 +14 +14 по сезону 1008.2 1007.3
03 11.07 С 2-3
{4}
20 км н/о +14.6 +13.2 91 +14 +14 по сезону 1007.8 1006.9
06 11.07 СЗ 3-4
{5}
20 км 4/4 300 м
[]
+17.0 +13.3 79 +17 +20 по сезону 1007.7 1006.8
09 11.07 С 4-6
{6}
20 км н/о +19.9 +10.5 55 +21 +21 комфорт 1007.5 1006.7
12 11.07 С 4-6
{8}
20 км н/о +17.7 +13.3 75 +17 +17 холодно 1007.2 1006.3
15 11.07 З 2-3
{4}
19 км н/о +16.6 +13.6 82 +17 +17 прохладно 1007.5 1006.6
18 11.07 С 3-5
{6}
20 км н/о +16.4 +13.4 82 +16 +16 прохладно 1007.6 1006.7
21 11.07 СВ 2-4
{4}
20 км н/о +15.6 +11.3 76 +16 +16 по сезону 1008.2 1007.3
00 12.07 В 3-5
{5}
20 км н/о +13.3 +9.8 79 +12 +12 по сезону 1009.1 1008.2
03 12.07 В 2-4
{5}
20 км н/о +11.4 +8.0 80 +10 +10 холодно 1009.6 1008.7
06 12.07 В 2-4
{5}
20 км н/о +14.4 +5.7 56 +14 +14 прохладно 1010.4 1009.5
09 12.07 С 4-6
{7}
20 км ясно +16.9 +5.4 47 +16 +26 прохладно 1010.8 1009.9
12 12.07 С 4-6
{7}
18 км ясно +16.4 +5.9 50 +16 +25 холодно 1010.9 1010.0
15 12.07 С 2-4
{7}
20 км ясно +16.8 +6.5 51 +17 +22 прохладно 1010.6 1009.7
18 12.07 С 3-4
{6}
20 км ясно +15.5 +6.7 56 +15 +15 прохладно 1010.8 1009.9
21 12.07 СВ 1-1
{2}
20 км 10/0
[]
+13.8 +8.6 71 +14 +14 прохладно 1011.1 1010.2
00 13.07 Ю 1-1
{1}
17 км 9/9 1500 м
[]
+13.3 +10.0 80 +13 +13 по сезону 1011.1 1010.2
03 13.07 ЮЗ 1-2
{2}
20 км 5/5 1500 м
[]
+12.1 +9.2 82 +12 +12 прохладно 1010.7 1009.8
06 13.07 СЗ 2-4
{4}
20 км 4/4 600 м
[]
+15.8 +10.5 71 +16 +20 по сезону 1010.8 1009.9
09 13.07 СЗ 4-6
{7}
20 км н/о +18.5 +10.0 58 +19 +19 по сезону 1010.7 1009.8
12 13.07 20 км н/о +18.7 +5.8 43 1010.4 1009.5
15 13.07 С 5-7
{8}
20 км н/о +17.9 +8.7 55 +18 +20 прохладно 1010.4 1009.5
18 13.07 С 3-6
{6}
20 км н/о +16.7 +10.9 69 +16 +17 прохладно 1010.6 1009.7
21 13.07 С 2-4
{4}
20 км н/о +14.3 +11.2 82 +14 +14 прохладно 1011.3 1010.4
00 14.07 СЗ 2-3
{4}
20 км н/о +14.0 +11.8 87 +13 +13 по сезону 1011.3 1010.4
03 14.07 СЗ 2-2
{3}
20 км н/о +12.8 +10.6 86 +12 +12 прохладно 1011.2 1010.3
06 14.07 С 3-6
{6}
20 км н/о +17.4 +10.9 66 +17 +17 по сезону 1011.7 1010.8
09 14.07 СЗ 3-5
{6}
20 км н/о +19.5 +9.3 52 +21 +32 комфорт 1012.1 1011.2
12 14.07 С 5-9
{9}
н/о н/о +19.9 +8.8 49 +21 +21 комфорт 1011.9 1011.1
15 14.07 -6
{7}
20 км н/о +19.7 +4.5 37 1012.0 1011.1
18 14.07 С 3-5
{6}
20 км н/о +17.3 +11.0 66 +17 +17 прохладно 1012.2 1011.3
21 14.07 СЗ 2-3
{3}
20 км н/о +15.6 +13.5 87 +15 +15 по сезону 1012.6 1011.7
00 15.07 С 2-4
{4}
20 км н/о +14.3 +12.1 87 +14 +14 по сезону 1012.5 1011.6
03 15.07 С 2-4
{4}
20 км н/о +13.0 +9.0 77 +12 +12 прохладно 1012.7 1011.8
06 15.07 С 3-6
{7}
19 км н/о +17.0 +9.6 62 +17 +17 по сезону 1012.6 1011.7
09 15.07 СЗ 2-5
{5}
19 км н/о +19.3 +10.0 55 +21 +21 комфорт 1012.6 1011.7
12 15.07 С 3-5
{5}
н/о н/о +20.6 +7.8 44 +22 +22 комфорт 1011.7 1010.9
15 15.07 СЗ 3-5
{5}
20 км н/о +22.2 +9.6 45 +24 +24 комфорт 1010.9 1010.1
18 15.07 Ю 2-4
{4}
19 км н/о +16.0 +14.1 88 +16 +16 прохладно 1011.0 1010.1
21 15.07 Ю 3-5
{5}
20 км н/о +14.9 +11.6 81 +14 +14 прохладно 1010.7 1009.8
00 16.07 Ю 3-4
{4}
20 км н/о +14.2 +11.1 82 +13 +13 по сезону 1009.3 1008.4
03 16.07 Ю 2-4
{4}
20 км н/о +13.8 +11.1 84 +13 +13 прохладно 1008.1 1007.2
06 16.07 Ю 2-4
{6}
14 км н/о +13.7 +12.2 91 +13 +13 прохладно 1007.5 1006.6
09 16.07 18 км н/о +13.4 +11.9 91 1006.9 1006.0

 

Местоположение метеостанции Рига (Латвия): широта 56.97 долгота 24.05 высота над уровнем моря 26 м.

В архиве по умолчанию представлена погода в Риге за последнюю неделю. Архивные данные за месяц целиком и за предыдущие месяцы, начиная с января 2011 года, Вы можете получить, выбрав интересующий диапазон дат из раскрывающегося списка и нажав кнопку "Ввод!".


*Определитесь, кто Вы:
робот инопланетянин человек

Внимание! Время в таблицах - всемирное. Для получения местного времени необходимо прибавить поправку, которая равна 2 ч.

Смотрите также архив погоды в соседних городах и на ближайших метеорологических станциях:

Погода в Елгаве (Латвия) (41 км)
Погода в Скульте (Латвия) (45 км)
Погода в Добеле (Латвия) (59 км)
Погода в Бауске (Латвия) (64 км)
Погода в Мерсрагсе (Латвия) (70 км)
Погода в Скриверу (Латвия) (75 км)
Погода в Приекули (Латвия) (86 км)
Погода в Стенде (Латвия) (94 км)
Погода в Биржае (Литва) (96 км)
Погода в Салдусе (Латвия) (100 км)

Пояснения к столбцам:

Ветер - указаны скорость ветра в м/с - средняя за 10 мин, порывы в срок и между сроками (в фигурных скобках) и направление, откуда дует ветер: С - северный, СВ - северо-восточный, В - восточный, ЮВ - юго-восточный, Ю - южный, ЮЗ - юго-западный, З - западный, СЗ - северо-западный.
Видимость - горизонтальная дальность видимости в метрах или километрах. При видимости от 1 до 10 км при отсутствии осадков обычно наблюдается дымка, при ухудшении видимости до 1 км и менее - туман. В сухую погоду видимость может ухудшаться дымом, пылью или мглою.
Явления - указаны атмосферные явления, наблюдавшиеся в срок или в последний час перед сроком; фигурными скобками обозначены явления, наблюдавшиеся между сроками (за 1-3 часа до срока); квадратными скобками обозначены град или гололедные отложения с указанием их диаметра в мм.
Облачность - указаны через наклонную черту общая и нижняя облачность в баллах и высота нижней границы облаков в метрах; квадратными скобками обозначены формы облаков: Ci - перистые, Cs - перисто-слоистые, Cc - перисто-кучевые, Ac - высококучевые, As - высокослоистые, Sc - слоисто-кучевые, Ns - слоисто-дождевые, Cu - кучевые, Cb - кучево-дождевые. Подробнее классификацию облаков см. в Атласе облаков (PDF).
T - Температура воздуха - температура, измеренная на высоте 2 м над землей.
Td - Температура точки росы - температура, при понижении до которой содержащийся в воздухе водяной пар достигнет насыщения.
f - Относительная влажность воздуха - влажноcть воздуха, измеренная на высоте 2 м над землей.
Te - Эффективная температура - температура, которую ощущает одетый по сезону человек в тени. Характеристика душности погоды. При расчете учитывается влияние влажности воздуха и скорости ветра на теплоощущения человека.
Tes - Эффективная температура на солнце - температура, которую ощущает человек, с поправкой на солнечный нагрев. Характеристика знойности погоды. Зависит от высоты солнца над горизонтом, облачности и скорости ветра. Ночью, в пасмурную погоду, а также при ветре 12 м/с и более поправка равна нулю.
P - Атмосферное давление - приведенное к уровню моря атмосферное давление.
Po - Атмосферное давление - измеренное на уровне метеостанции атмосферное давление.
Tmin - Минимальная температура - минимум температуры воздуха на высоте 2 м над землей.
Tmax - Максимальная температура - максимум температуры воздуха на высоте 2 м над землей.
R - Количество осадков - Количество выпавших осадков за период времени, мм. При наведении курсора мыши на число - период времени, за который выпало указанное количество осадков.
R24 - Количество осадков - Количество выпавших осадков за 24 часа, мм.
S - Снежный покров - Высота снежного покрова, см. При наведении курсора мыши на число - состояние снежного покрова и степень покрытия местности в баллах.